Regional Weather Roundup
Issued by NWS

Home | Current Version | Previous Version | Text Only | Print | Product List | Glossary Off
Versions: 1 2 3 4 5 6 7 8 9 10 11 12 13 14 15 16 17 18 19 20 21 22 23 24 25 26 27 28 29 30 31 32 33 34 35 36 37 38 39 40 41 42 43 44 45 46 47 48 49 50

000
ASUS43 KBIS 230502
RWRND

NORTH DAKOTA REGIONAL WEATHER ROUNDUP
NATIONAL WEATHER SERVICE BISMARCK ND
1100 PM CST WED NOV 22 2017

NOTE: "FAIR" INDICATES FEW OR NO CLOUDS BELOW 12,000 FEET WITH NO
SIGNIFICANT WEATHER AND/OR OBSTRUCTIONS TO VISIBILITY.


NDZ001>003-009>011-017-230600-
NORTHWEST NORTH DAKOTA

CITY           SKY/WX    TMP DP  RH WIND       PRES   REMARKS
WILLISTON      CLOUDY    23  20  88 CALM      29.94F
MINOT          CLOUDY    24  20  84 SW3       29.94F
MINOT AFB      CLOUDY    21  19  91 SW5       29.93F WCI  15
$$

NDZ018>021-031>035-040>046-230600-
SOUTHWEST NORTH DAKOTA

CITY           SKY/WX    TMP DP  RH WIND       PRES   REMARKS
BISMARCK       CLOUDY    30  24  78 SW3       29.99F
DICKINSON      CLEAR     31  29  92 S6        29.94F
GARRISON         N/A     24  22  91 CALM      29.95F
HETTINGER ARPT CLEAR     33  31  92 NW3       30.00F
$$

NDZ004>008-012>016-024-026-027-054-230600-
NORTHEAST NORTH DAKOTA

CITY           SKY/WX    TMP DP  RH WIND       PRES   REMARKS
GRAND FORKS    CLOUDY    20  17  88 CALM      29.95F
GRND FRKS AFB  CLOUDY    19  16  91 W3        29.95S
DEVILS LAKE    CLOUDY    27  25  92 SW6       29.95S
$$

NDZ022-023-025-028>030-036>039-047>053-230600-
SOUTHEAST NORTH DAKOTA

CITY           SKY/WX    TMP DP  RH WIND       PRES   REMARKS
FARGO          CLOUDY    25  17  72 CALM      29.94F
JAMESTOWN      CLOUDY    27  22  81 NW6       29.94S
$$





USA.gov is the U.S. government's official web portal to all federal, state and local government web resources and services.